owner,sensor,date,latitude,longitude,air_temperature,qcFlag 
TABS,ioos:station:wmo:42043:1,2017-06-07T00:00:00Z,28.9818,-94.9186,26.6,11144222 
TABS,ioos:station:wmo:42043:1,2017-06-07T00:30:00Z,28.9818,-94.9186,26.3,11144222 
TABS,ioos:station:wmo:42043:1,2017-06-07T01:00:00Z,28.9818,-94.9186,25.9,11144222 
TABS,ioos:station:wmo:42043:1,2017-06-07T01:30:00Z,28.9818,-94.9186,26.1,11144222 
TABS,ioos:station:wmo:42043:1,2017-06-07T02:00:00Z,28.9818,-94.9186,26.0,11144222 
TABS,ioos:station:wmo:42043:1,2017-06-07T02:30:00Z,28.9818,-94.9186,24.5,11144222 
TABS,ioos:station:wmo:42043:1,2017-06-07T03:00:00Z,28.9818,-94.9186,25.0,11144222 
TABS,ioos:station:wmo:42043:1,2017-06-07T03:30:00Z,28.9818,-94.9186,25.6,11144222 
TABS,ioos:station:wmo:42043:1,2017-06-07T04:00:00Z,28.9818,-94.9186,25.3,11144222 
TABS,ioos:station:wmo:42043:1,2017-06-07T04:30:00Z,28.9818,-94.9186,25.3,11144222 
TABS,ioos:station:wmo:42043:1,2017-06-07T05:00:00Z,28.9818,-94.9186,25.3,11144222 
TABS,ioos:station:wmo:42043:1,2017-06-07T05:30:00Z,28.9818,-94.9186,25.0,11144222 
TABS,ioos:station:wmo:42043:1,2017-06-07T06:00:00Z,28.9818,-94.9186,25.1,11144222 
TABS,ioos:station:wmo:42043:1,2017-06-07T06:30:00Z,28.9818,-94.9186,24.9,11144222 
TABS,ioos:station:wmo:42043:1,2017-06-07T07:00:00Z,28.9818,-94.9186,24.9,11144222 
TABS,ioos:station:wmo:42043:1,2017-06-07T07:30:00Z,28.9818,-94.9186,24.8,11144222 
TABS,ioos:station:wmo:42043:1,2017-06-07T08:00:00Z,28.9818,-94.9186,24.6,11144222 
TABS,ioos:station:wmo:42043:1,2017-06-07T08:30:00Z,28.9818,-94.9186,24.5,11144222 
TABS,ioos:station:wmo:42043:1,2017-06-07T09:00:00Z,28.9818,-94.9186,24.6,11144222 
TABS,ioos:station:wmo:42043:1,2017-06-07T09:30:00Z,28.9818,-94.9186,24.4,11144222 
TABS,ioos:station:wmo:42043:1,2017-06-07T10:00:00Z,28.9818,-94.9186,24.5,11144222 
TABS,ioos:station:wmo:42043:1,2017-06-07T10:30:00Z,28.9818,-94.9186,24.4,11144222 
TABS,ioos:station:wmo:42043:1,2017-06-07T11:00:00Z,28.9818,-94.9186,24.2,11144222 
TABS,ioos:station:wmo:42043:1,2017-06-07T11:30:00Z,28.9818,-94.9186,24.6,11144222 
TABS,ioos:station:wmo:42043:1,2017-06-07T12:00:00Z,28.9818,-94.9186,23.4,11144222 
TABS,ioos:station:wmo:42043:1,2017-06-07T12:30:00Z,28.9818,-94.9186,24.7,11144222 
TABS,ioos:station:wmo:42043:1,2017-06-07T13:00:00Z,28.9818,-94.9186,25.1,11144222 
TABS,ioos:station:wmo:42043:1,2017-06-07T13:30:00Z,28.9818,-94.9186,25.2,11144222 
TABS,ioos:station:wmo:42043:1,2017-06-07T14:00:00Z,28.9818,-94.9186,25.5,11144222 
TABS,ioos:station:wmo:42043:1,2017-06-07T14:30:00Z,28.9818,-94.9186,25.6,11144222 
TABS,ioos:station:wmo:42043:1,2017-06-07T15:00:00Z,28.9818,-94.9186,25.7,11144222 
TABS,ioos:station:wmo:42043:1,2017-06-07T15:30:00Z,28.9818,-94.9186,25.7,11144222 
TABS,ioos:station:wmo:42043:1,2017-06-07T16:00:00Z,28.9818,-94.9186,25.7,11144222 
TABS,ioos:station:wmo:42043:1,2017-06-07T16:30:00Z,28.9818,-94.9186,25.5,11144222 
TABS,ioos:station:wmo:42043:1,2017-06-07T17:00:00Z,28.9818,-94.9186,25.6,11144222 
TABS,ioos:station:wmo:42043:1,2017-06-07T17:30:00Z,28.9818,-94.9186,25.6,11144222 
TABS,ioos:station:wmo:42043:1,2017-06-07T18:00:00Z,28.9818,-94.9186,25.7,11144222 
TABS,ioos:station:wmo:42043:1,2017-06-07T18:30:00Z,28.9818,-94.9186,25.7,11144222 
TABS,ioos:station:wmo:42043:1,2017-06-07T19:00:00Z,28.9818,-94.9186,25.8,11144222 
TABS,ioos:station:wmo:42043:1,2017-06-07T19:30:00Z,28.9818,-94.9186,25.8,11144222 
TABS,ioos:station:wmo:42043:1,2017-06-07T20:00:00Z,28.9818,-94.9186,25.9,11144222 
TABS,ioos:station:wmo:42043:1,2017-06-07T20:30:00Z,28.9818,-94.9186,26.3,11144222 
TABS,ioos:station:wmo:42043:1,2017-06-07T21:00:00Z,28.9818,-94.9186,26.4,11144222 
TABS,ioos:station:wmo:42043:1,2017-06-07T21:30:00Z,28.9818,-94.9186,26.7,11144222 
TABS,ioos:station:wmo:42043:1,2017-06-07T22:00:00Z,28.9818,-94.9186,26.9,11144222 
TABS,ioos:station:wmo:42043:1,2017-06-07T22:30:00Z,28.9818,-94.9186,27.1,11144222 
TABS,ioos:station:wmo:42043:1,2017-06-07T23:00:00Z,28.9818,-94.9186,28.1,11144222 
TABS,ioos:station:wmo:42043:1,2017-06-07T23:30:00Z,28.9818,-94.9186,28.1,11144222 
TABS,ioos:station:wmo:42043:1,2017-06-08T00:00:00Z,28.9818,-94.9186,28.2,11144222 
TABS,ioos:station:wmo:42043:1,2017-06-08T00:30:00Z,28.9818,-94.9186,27.9,11144222 
TABS,ioos:station:wmo:42043:1,2017-06-08T01:00:00Z,28.9818,-94.9186,27.6,11144222 
TABS,ioos:station:wmo:42043:1,2017-06-08T01:30:00Z,28.9818,-94.9186,28.0,11144222 
TABS,ioos:station:wmo:42043:1,2017-06-08T02:00:00Z,28.9818,-94.9186,28.0,11144222 
TABS,ioos:station:wmo:42043:1,2017-06-08T02:30:00Z,28.9818,-94.9186,27.6,11144222 
TABS,ioos:station:wmo:42043:1,2017-06-08T03:00:00Z,28.9818,-94.9186,27.4,11144222 
TABS,ioos:station:wmo:42043:1,2017-06-08T03:30:00Z,28.9818,-94.9186,27.3,11144222 
TABS,ioos:station:wmo:42043:1,2017-06-08T04:00:00Z,28.9818,-94.9186,27.1,11144222 
TABS,ioos:station:wmo:42043:1,2017-06-08T04:30:00Z,28.9818,-94.9186,27.1,11144222 
TABS,ioos:station:wmo:42043:1,2017-06-08T05:00:00Z,28.9818,-94.9186,26.9,11144222 
TABS,ioos:station:wmo:42043:1,2017-06-08T05:30:00Z,28.9818,-94.9186,26.7,11144222 
TABS,ioos:station:wmo:42043:1,2017-06-08T06:00:00Z,28.9818,-94.9186,26.5,11144222 
TABS,ioos:station:wmo:42043:1,2017-06-08T06:30:00Z,28.9818,-94.9186,26.5,11144222 
TABS,ioos:station:wmo:42043:1,2017-06-08T07:00:00Z,28.9818,-94.9186,26.4,11144222 
TABS,ioos:station:wmo:42043:1,2017-06-08T07:30:00Z,28.9818,-94.9186,26.2,11144222 
TABS,ioos:station:wmo:42043:1,2017-06-08T08:00:00Z,28.9818,-94.9186,26.0,11144222 
TABS,ioos:station:wmo:42043:1,2017-06-08T08:30:00Z,28.9818,-94.9186,25.6,11144222 
TABS,ioos:station:wmo:42043:1,2017-06-08T09:00:00Z,28.9818,-94.9186,25.2,11144222 
TABS,ioos:station:wmo:42043:1,2017-06-08T09:30:00Z,28.9818,-94.9186,25.3,11144222 
TABS,ioos:station:wmo:42043:1,2017-06-08T10:00:00Z,28.9818,-94.9186,25.1,11144222 
TABS,ioos:station:wmo:42043:1,2017-06-08T10:30:00Z,28.9818,-94.9186,25.2,11144222 
TABS,ioos:station:wmo:42043:1,2017-06-08T11:00:00Z,28.9818,-94.9186,25.1,11144222 
TABS,ioos:station:wmo:42043:1,2017-06-08T11:30:00Z,28.9818,-94.9186,25.0,11144222 
TABS,ioos:station:wmo:42043:1,2017-06-08T12:00:00Z,28.9818,-94.9186,25.2,11144222 
TABS,ioos:station:wmo:42043:1,2017-06-08T12:30:00Z,28.9818,-94.9186,25.2,11144222 
TABS,ioos:station:wmo:42043:1,2017-06-08T13:00:00Z,28.9818,-94.9186,25.1,11144222 
TABS,ioos:station:wmo:42043:1,2017-06-08T13:30:00Z,28.9818,-94.9186,25.2,11144222 
TABS,ioos:station:wmo:42043:1,2017-06-08T14:00:00Z,28.9818,-94.9186,25.1,11144222 
TABS,ioos:station:wmo:42043:1,2017-06-08T14:30:00Z,28.9818,-94.9186,25.1,11144222 
TABS,ioos:station:wmo:42043:1,2017-06-08T15:00:00Z,28.9818,-94.9186,25.2,11144222 
TABS,ioos:station:wmo:42043:1,2017-06-08T15:30:00Z,28.9818,-94.9186,25.2,11144222 
TABS,ioos:station:wmo:42043:1,2017-06-08T16:00:00Z,28.9818,-94.9186,25.1,11144222 
TABS,ioos:station:wmo:42043:1,2017-06-08T16:30:00Z,28.9818,-94.9186,25.0,11144222 
TABS,ioos:station:wmo:42043:1,2017-06-08T17:00:00Z,28.9818,-94.9186,24.9,11144222 
TABS,ioos:station:wmo:42043:1,2017-06-08T17:30:00Z,28.9818,-94.9186,24.9,11144222 
TABS,ioos:station:wmo:42043:1,2017-06-08T18:00:00Z,28.9818,-94.9186,24.8,11144222 
TABS,ioos:station:wmo:42043:1,2017-06-08T18:30:00Z,28.9818,-94.9186,24.7,11144222 
TABS,ioos:station:wmo:42043:1,2017-06-08T19:00:00Z,28.9818,-94.9186,24.7,11144222 
TABS,ioos:station:wmo:42043:1,2017-06-08T19:30:00Z,28.9818,-94.9186,24.8,11144222 
TABS,ioos:station:wmo:42043:1,2017-06-08T20:00:00Z,28.9818,-94.9186,25.0,11144222 
TABS,ioos:station:wmo:42043:1,2017-06-08T20:30:00Z,28.9818,-94.9186,25.1,11144222 
TABS,ioos:station:wmo:42043:1,2017-06-08T21:00:00Z,28.9818,-94.9186,25.3,11144222 
TABS,ioos:station:wmo:42043:1,2017-06-08T21:30:00Z,28.9818,-94.9186,25.4,11144222 
TABS,ioos:station:wmo:42043:1,2017-06-08T22:00:00Z,28.9818,-94.9186,25.4,11144222 
TABS,ioos:station:wmo:42043:1,2017-06-08T22:30:00Z,28.9818,-94.9186,25.6,11144222 
TABS,ioos:station:wmo:42043:1,2017-06-08T23:00:00Z,28.9818,-94.9186,25.5,11144222 
TABS,ioos:station:wmo:42043:1,2017-06-08T23:30:00Z,28.9818,-94.9186,25.7,11144222 
TABS,ioos:station:wmo:42043:1,2017-06-09T00:00:00Z,28.9818,-94.9186,25.8,11144222 
TABS,ioos:station:wmo:42043:1,2017-06-09T00:30:00Z,28.9818,-94.9186,25.7,11144222 
TABS,ioos:station:wmo:42043:1,2017-06-09T01:00:00Z,28.9818,-94.9186,25.4,11144222 
TABS,ioos:station:wmo:42043:1,2017-06-09T01:30:00Z,28.9818,-94.9186,25.3,11144222 
TABS,ioos:station:wmo:42043:1,2017-06-09T02:00:00Z,28.9818,-94.9186,25.2,11144222 
TABS,ioos:station:wmo:42043:1,2017-06-09T02:30:00Z,28.9818,-94.9186,25.2,11144222 
TABS,ioos:station:wmo:42043:1,2017-06-09T03:00:00Z,28.9818,-94.9186,25.3,11144222 
TABS,ioos:station:wmo:42043:1,2017-06-09T03:30:00Z,28.9818,-94.9186,25.2,11144222 
TABS,ioos:station:wmo:42043:1,2017-06-09T04:00:00Z,28.9818,-94.9186,25.3,11144222 
TABS,ioos:station:wmo:42043:1,2017-06-09T04:30:00Z,28.9818,-94.9186,25.3,11144222 
TABS,ioos:station:wmo:42043:1,2017-06-09T05:00:00Z,28.9818,-94.9186,25.3,11144222 
TABS,ioos:station:wmo:42043:1,2017-06-09T05:30:00Z,28.9818,-94.9186,25.2,11144222 
TABS,ioos:station:wmo:42043:1,2017-06-09T06:00:00Z,28.9818,-94.9186,25.1,11144222 
TABS,ioos:station:wmo:42043:1,2017-06-09T06:30:00Z,28.9818,-94.9186,25.2,11144222 
TABS,ioos:station:wmo:42043:1,2017-06-09T07:00:00Z,28.9818,-94.9186,25.0,11144222 
TABS,ioos:station:wmo:42043:1,2017-06-09T07:30:00Z,28.9818,-94.9186,25.1,11144222 
TABS,ioos:station:wmo:42043:1,2017-06-09T08:00:00Z,28.9818,-94.9186,25.1,11144222 
TABS,ioos:station:wmo:42043:1,2017-06-09T08:30:00Z,28.9818,-94.9186,25.1,11144222 
TABS,ioos:station:wmo:42043:1,2017-06-09T09:00:00Z,28.9818,-94.9186,25.0,11144222 
TABS,ioos:station:wmo:42043:1,2017-06-09T09:30:00Z,28.9818,-94.9186,25.0,11144222 
TABS,ioos:station:wmo:42043:1,2017-06-09T10:00:00Z,28.9818,-94.9186,25.0,11144222 
TABS,ioos:station:wmo:42043:1,2017-06-09T10:30:00Z,28.9818,-94.9186,24.9,11144222 
TABS,ioos:station:wmo:42043:1,2017-06-09T11:00:00Z,28.9818,-94.9186,25.0,11144222 
TABS,ioos:station:wmo:42043:1,2017-06-09T11:30:00Z,28.9818,-94.9186,25.0,11144222 
TABS,ioos:station:wmo:42043:1,2017-06-09T12:00:00Z,28.9818,-94.9186,25.2,11144222 
TABS,ioos:station:wmo:42043:1,2017-06-09T12:30:00Z,28.9818,-94.9186,25.2,11144222 
TABS,ioos:station:wmo:42043:1,2017-06-09T13:00:00Z,28.9818,-94.9186,25.4,11144222 
TABS,ioos:station:wmo:42043:1,2017-06-09T13:30:00Z,28.9818,-94.9186,25.3,11144222 
TABS,ioos:station:wmo:42043:1,2017-06-09T14:00:00Z,28.9818,-94.9186,25.0,11144222 
TABS,ioos:station:wmo:42043:1,2017-06-09T14:30:00Z,28.9818,-94.9186,25.3,11144222 
TABS,ioos:station:wmo:42043:1,2017-06-09T15:00:00Z,28.9818,-94.9186,25.1,11144222 
TABS,ioos:station:wmo:42043:1,2017-06-09T15:30:00Z,28.9818,-94.9186,25.1,11144222 
TABS,ioos:station:wmo:42043:1,2017-06-09T16:00:00Z,28.9818,-94.9186,25.1,11144222 
TABS,ioos:station:wmo:42043:1,2017-06-09T16:30:00Z,28.9818,-94.9186,25.0,11144222 
TABS,ioos:station:wmo:42043:1,2017-06-09T17:00:00Z,28.9818,-94.9186,25.0,11144222 
TABS,ioos:station:wmo:42043:1,2017-06-09T17:30:00Z,28.9818,-94.9186,25.1,11144222 
TABS,ioos:station:wmo:42043:1,2017-06-09T18:00:00Z,28.9818,-94.9186,25.0,11144222 
TABS,ioos:station:wmo:42043:1,2017-06-09T18:30:00Z,28.9818,-94.9186,25.2,11144222 
TABS,ioos:station:wmo:42043:1,2017-06-09T19:00:00Z,28.9818,-94.9186,25.3,11144222 
TABS,ioos:station:wmo:42043:1,2017-06-09T19:30:00Z,28.9818,-94.9186,25.5,11144222 
TABS,ioos:station:wmo:42043:1,2017-06-09T20:00:00Z,28.9818,-94.9186,25.5,11144222 
TABS,ioos:station:wmo:42043:1,2017-06-09T20:30:00Z,28.9818,-94.9186,25.4,11144222 
TABS,ioos:station:wmo:42043:1,2017-06-09T21:00:00Z,28.9818,-94.9186,25.5,11144222 
TABS,ioos:station:wmo:42043:1,2017-06-09T21:30:00Z,28.9818,-94.9186,25.4,11144222 
TABS,ioos:station:wmo:42043:1,2017-06-09T22:00:00Z,28.9818,-94.9186,25.7,11144222 
TABS,ioos:station:wmo:42043:1,2017-06-09T22:30:00Z,28.9818,-94.9186,25.9,11144222 
TABS,ioos:station:wmo:42043:1,2017-06-09T23:00:00Z,28.9818,-94.9186,25.9,11144222 
TABS,ioos:station:wmo:42043:1,2017-06-09T23:30:00Z,28.9818,-94.9186,25.5,11144222 
TABS,ioos:station:wmo:42043:1,2017-06-10T00:00:00Z,28.9818,-94.9186,25.8,11144222 
TABS,ioos:station:wmo:42043:1,2017-06-10T00:30:00Z,28.9818,-94.9186,25.7,11144222 
TABS,ioos:station:wmo:42043:1,2017-06-10T01:00:00Z,28.9818,-94.9186,25.4,11144222 
TABS,ioos:station:wmo:42043:1,2017-06-10T01:30:00Z,28.9818,-94.9186,25.3,11144222 
TABS,ioos:station:wmo:42043:1,2017-06-10T02:00:00Z,28.9818,-94.9186,25.0,11144222 
TABS,ioos:station:wmo:42043:1,2017-06-10T02:30:00Z,28.9818,-94.9186,25.0,11144222 
TABS,ioos:station:wmo:42043:1,2017-06-10T03:00:00Z,28.9818,-94.9186,25.3,11144222 
TABS,ioos:station:wmo:42043:1,2017-06-10T03:30:00Z,28.9818,-94.9186,25.0,11144222 
TABS,ioos:station:wmo:42043:1,2017-06-10T04:00:00Z,28.9818,-94.9186,25.3,11144222 
TABS,ioos:station:wmo:42043:1,2017-06-10T04:30:00Z,28.9818,-94.9186,25.2,11144222 
TABS,ioos:station:wmo:42043:1,2017-06-10T05:00:00Z,28.9818,-94.9186,25.2,11144222 
TABS,ioos:station:wmo:42043:1,2017-06-10T05:30:00Z,28.9818,-94.9186,25.2,11144222 
TABS,ioos:station:wmo:42043:1,2017-06-10T06:00:00Z,28.9818,-94.9186,25.1,11144222 
TABS,ioos:station:wmo:42043:1,2017-06-10T06:30:00Z,28.9818,-94.9186,25.0,11144222 
TABS,ioos:station:wmo:42043:1,2017-06-10T07:00:00Z,28.9818,-94.9186,25.0,11144222 
TABS,ioos:station:wmo:42043:1,2017-06-10T07:30:00Z,28.9818,-94.9186,24.8,11144222 
TABS,ioos:station:wmo:42043:1,2017-06-10T08:00:00Z,28.9818,-94.9186,24.8,11144222 
TABS,ioos:station:wmo:42043:1,2017-06-10T08:30:00Z,28.9818,-94.9186,24.8,11144222 
TABS,ioos:station:wmo:42043:1,2017-06-10T09:00:00Z,28.9818,-94.9186,24.6,11144222 
TABS,ioos:station:wmo:42043:1,2017-06-10T09:30:00Z,28.9818,-94.9186,24.7,11144222 
TABS,ioos:station:wmo:42043:1,2017-06-10T10:00:00Z,28.9818,-94.9186,24.6,11144222 
TABS,ioos:station:wmo:42043:1,2017-06-10T10:30:00Z,28.9818,-94.9186,24.7,11144222 
TABS,ioos:station:wmo:42043:1,2017-06-10T11:00:00Z,28.9818,-94.9186,24.7,11144222 
TABS,ioos:station:wmo:42043:1,2017-06-10T11:30:00Z,28.9818,-94.9186,24.8,11144222 
TABS,ioos:station:wmo:42043:1,2017-06-10T12:00:00Z,28.9818,-94.9186,24.9,11144222 
TABS,ioos:station:wmo:42043:1,2017-06-10T12:30:00Z,28.9818,-94.9186,25.1,11144222 
TABS,ioos:station:wmo:42043:1,2017-06-10T13:00:00Z,28.9818,-94.9186,25.4,11144222 
TABS,ioos:station:wmo:42043:1,2017-06-10T13:30:00Z,28.9818,-94.9186,25.5,11144222 
TABS,ioos:station:wmo:42043:1,2017-06-10T14:00:00Z,28.9818,-94.9186,25.5,11144222 
TABS,ioos:station:wmo:42043:1,2017-06-10T14:30:00Z,28.9818,-94.9186,25.6,11144222 
TABS,ioos:station:wmo:42043:1,2017-06-10T15:00:00Z,28.9818,-94.9186,25.5,11144222 
TABS,ioos:station:wmo:42043:1,2017-06-10T15:30:00Z,28.9818,-94.9186,25.6,11144222 
TABS,ioos:station:wmo:42043:1,2017-06-10T16:00:00Z,28.9818,-94.9186,25.6,11144222 
TABS,ioos:station:wmo:42043:1,2017-06-10T16:30:00Z,28.9818,-94.9186,25.8,11144222 
TABS,ioos:station:wmo:42043:1,2017-06-10T17:00:00Z,28.9818,-94.9186,25.9,11144222 
TABS,ioos:station:wmo:42043:1,2017-06-10T17:30:00Z,28.9818,-94.9186,25.9,11144222 
TABS,ioos:station:wmo:42043:1,2017-06-10T18:00:00Z,28.9818,-94.9186,25.9,11144222 
TABS,ioos:station:wmo:42043:1,2017-06-10T18:30:00Z,28.9818,-94.9186,26.0,11144222 
TABS,ioos:station:wmo:42043:1,2017-06-10T19:00:00Z,28.9818,-94.9186,26.1,11144222 
TABS,ioos:station:wmo:42043:1,2017-06-10T19:30:00Z,28.9818,-94.9186,26.2,11144222 
TABS,ioos:station:wmo:42043:1,2017-06-10T20:00:00Z,28.9818,-94.9186,26.2,11144222 
TABS,ioos:station:wmo:42043:1,2017-06-10T20:30:00Z,28.9818,-94.9186,26.3,11144222 
TABS,ioos:station:wmo:42043:1,2017-06-10T21:00:00Z,28.9818,-94.9186,26.2,11144222 
TABS,ioos:station:wmo:42043:1,2017-06-10T21:30:00Z,28.9818,-94.9186,26.5,11144222 
TABS,ioos:station:wmo:42043:1,2017-06-10T22:00:00Z,28.9818,-94.9186,26.6,11144222 
TABS,ioos:station:wmo:42043:1,2017-06-10T22:30:00Z,28.9818,-94.9186,26.4,11144222 
TABS,ioos:station:wmo:42043:1,2017-06-10T23:00:00Z,28.9818,-94.9186,26.7,11144222 
TABS,ioos:station:wmo:42043:1,2017-06-10T23:30:00Z,28.9818,-94.9186,26.7,11144222 
TABS,ioos:station:wmo:42043:1,2017-06-11T00:00:00Z,28.9818,-94.9186,26.5,11144222 
TABS,ioos:station:wmo:42043:1,2017-06-11T00:30:00Z,28.9818,-94.9186,26.2,11144222 
TABS,ioos:station:wmo:42043:1,2017-06-11T01:00:00Z,28.9818,-94.9186,26.1,11144222 
TABS,ioos:station:wmo:42043:1,2017-06-11T01:30:00Z,28.9818,-94.9186,25.9,11144222 
TABS,ioos:station:wmo:42043:1,2017-06-11T02:00:00Z,28.9818,-94.9186,25.7,11144222 
TABS,ioos:station:wmo:42043:1,2017-06-11T02:30:00Z,28.9818,-94.9186,25.7,11144222 
TABS,ioos:station:wmo:42043:1,2017-06-11T03:00:00Z,28.9818,-94.9186,25.7,11144222 
TABS,ioos:station:wmo:42043:1,2017-06-11T03:30:00Z,28.9818,-94.9186,25.8,11144222 
TABS,ioos:station:wmo:42043:1,2017-06-11T04:00:00Z,28.9818,-94.9186,25.5,11144222 
TABS,ioos:station:wmo:42043:1,2017-06-11T04:30:00Z,28.9818,-94.9186,25.5,11144222 
TABS,ioos:station:wmo:42043:1,2017-06-11T05:00:00Z,28.9818,-94.9186,25.5,11144222 
TABS,ioos:station:wmo:42043:1,2017-06-11T05:30:00Z,28.9818,-94.9186,25.4,11144222 
TABS,ioos:station:wmo:42043:1,2017-06-11T06:00:00Z,28.9818,-94.9186,25.3,11144222 
TABS,ioos:station:wmo:42043:1,2017-06-11T06:30:00Z,28.9818,-94.9186,25.1,11144222 
TABS,ioos:station:wmo:42043:1,2017-06-11T07:00:00Z,28.9818,-94.9186,25.2,11144222 
TABS,ioos:station:wmo:42043:1,2017-06-11T07:30:00Z,28.9818,-94.9186,25.2,11144222 
TABS,ioos:station:wmo:42043:1,2017-06-11T08:00:00Z,28.9818,-94.9186,25.1,11144222 
TABS,ioos:station:wmo:42043:1,2017-06-11T08:30:00Z,28.9818,-94.9186,25.1,11144222 
TABS,ioos:station:wmo:42043:1,2017-06-11T09:00:00Z,28.9818,-94.9186,25.2,11144222 
TABS,ioos:station:wmo:42043:1,2017-06-11T09:30:00Z,28.9818,-94.9186,25.2,11144222 
TABS,ioos:station:wmo:42043:1,2017-06-11T10:00:00Z,28.9818,-94.9186,25.2,11144222 
TABS,ioos:station:wmo:42043:1,2017-06-11T10:30:00Z,28.9818,-94.9186,25.2,11144222 
TABS,ioos:station:wmo:42043:1,2017-06-11T11:00:00Z,28.9818,-94.9186,25.2,11144222 
TABS,ioos:station:wmo:42043:1,2017-06-11T11:30:00Z,28.9818,-94.9186,25.2,11144222 
TABS,ioos:station:wmo:42043:1,2017-06-11T12:00:00Z,28.9818,-94.9186,25.6,11144222 
TABS,ioos:station:wmo:42043:1,2017-06-11T12:30:00Z,28.9818,-94.9186,25.7,11144222 
TABS,ioos:station:wmo:42043:1,2017-06-11T13:00:00Z,28.9818,-94.9186,25.8,11144222 
TABS,ioos:station:wmo:42043:1,2017-06-11T13:30:00Z,28.9818,-94.9186,25.9,11144222 
TABS,ioos:station:wmo:42043:1,2017-06-11T14:00:00Z,28.9818,-94.9186,26.0,11144222 
TABS,ioos:station:wmo:42043:1,2017-06-11T14:30:00Z,28.9818,-94.9186,25.6,11144222 
TABS,ioos:station:wmo:42043:1,2017-06-11T15:00:00Z,28.9818,-94.9186,26.0,11144222 
TABS,ioos:station:wmo:42043:1,2017-06-11T15:30:00Z,28.9818,-94.9186,26.0,11144222 
TABS,ioos:station:wmo:42043:1,2017-06-11T16:00:00Z,28.9818,-94.9186,26.1,11144222 
TABS,ioos:station:wmo:42043:1,2017-06-11T16:30:00Z,28.9818,-94.9186,26.2,11144222 
TABS,ioos:station:wmo:42043:1,2017-06-11T17:00:00Z,28.9818,-94.9186,24.6,11144222 
TABS,ioos:station:wmo:42043:1,2017-06-11T17:30:00Z,28.9818,-94.9186,25.1,11144222 
TABS,ioos:station:wmo:42043:1,2017-06-11T18:00:00Z,28.9818,-94.9186,25.6,11144222 
TABS,ioos:station:wmo:42043:1,2017-06-11T18:30:00Z,28.9818,-94.9186,25.8,11144222 
TABS,ioos:station:wmo:42043:1,2017-06-11T19:00:00Z,28.9818,-94.9186,25.6,11144222 
TABS,ioos:station:wmo:42043:1,2017-06-11T19:30:00Z,28.9818,-94.9186,26.1,11144222 
TABS,ioos:station:wmo:42043:1,2017-06-11T20:00:00Z,28.9818,-94.9186,26.2,11144222 
TABS,ioos:station:wmo:42043:1,2017-06-11T20:30:00Z,28.9818,-94.9186,26.5,11144222 
TABS,ioos:station:wmo:42043:1,2017-06-11T21:00:00Z,28.9818,-94.9186,26.6,11144222 
TABS,ioos:station:wmo:42043:1,2017-06-11T21:30:00Z,28.9818,-94.9186,26.8,11144222 
TABS,ioos:station:wmo:42043:1,2017-06-11T22:00:00Z,28.9818,-94.9186,26.8,11144222 
TABS,ioos:station:wmo:42043:1,2017-06-11T22:30:00Z,28.9818,-94.9186,26.8,11144222 
TABS,ioos:station:wmo:42043:1,2017-06-11T23:00:00Z,28.9818,-94.9186,26.8,11144222 
TABS,ioos:station:wmo:42043:1,2017-06-11T23:30:00Z,28.9818,-94.9186,26.8,11144222 
TABS,ioos:station:wmo:42043:1,2017-06-12T00:00:00Z,28.9818,-94.9186,26.7,11144222 
TABS,ioos:station:wmo:42043:1,2017-06-12T00:30:00Z,28.9818,-94.9186,26.6,11144222 
TABS,ioos:station:wmo:42043:1,2017-06-12T01:00:00Z,28.9818,-94.9186,26.4,11144222 
TABS,ioos:station:wmo:42043:1,2017-06-12T01:30:00Z,28.9818,-94.9186,26.3,11144222 
TABS,ioos:station:wmo:42043:1,2017-06-12T02:00:00Z,28.9818,-94.9186,26.3,11144222 
TABS,ioos:station:wmo:42043:1,2017-06-12T02:30:00Z,28.9818,-94.9186,26.2,11144222 
TABS,ioos:station:wmo:42043:1,2017-06-12T03:00:00Z,28.9818,-94.9186,26.1,11144222 
TABS,ioos:station:wmo:42043:1,2017-06-12T03:30:00Z,28.9818,-94.9186,25.9,11144222 
TABS,ioos:station:wmo:42043:1,2017-06-12T04:00:00Z,28.9818,-94.9186,26.2,11144222 
TABS,ioos:station:wmo:42043:1,2017-06-12T04:30:00Z,28.9818,-94.9186,26.2,11144222 
TABS,ioos:station:wmo:42043:1,2017-06-12T05:00:00Z,28.9818,-94.9186,26.2,11144222 
TABS,ioos:station:wmo:42043:1,2017-06-12T05:30:00Z,28.9818,-94.9186,26.2,11144222 
TABS,ioos:station:wmo:42043:1,2017-06-12T06:00:00Z,28.9818,-94.9186,26.1,11144222 
TABS,ioos:station:wmo:42043:1,2017-06-12T06:30:00Z,28.9818,-94.9186,26.2,11144222 
TABS,ioos:station:wmo:42043:1,2017-06-12T07:00:00Z,28.9818,-94.9186,26.1,11144222 
TABS,ioos:station:wmo:42043:1,2017-06-12T07:30:00Z,28.9818,-94.9186,26.1,11144222 
TABS,ioos:station:wmo:42043:1,2017-06-12T08:00:00Z,28.9818,-94.9186,26.2,11144222 
TABS,ioos:station:wmo:42043:1,2017-06-12T08:30:00Z,28.9818,-94.9186,26.1,11144222 
TABS,ioos:station:wmo:42043:1,2017-06-12T09:00:00Z,28.9818,-94.9186,26.1,11144222 
TABS,ioos:station:wmo:42043:1,2017-06-12T09:30:00Z,28.9818,-94.9186,26.0,11144222 
TABS,ioos:station:wmo:42043:1,2017-06-12T10:00:00Z,28.9818,-94.9186,25.8,11144222 
TABS,ioos:station:wmo:42043:1,2017-06-12T10:30:00Z,28.9818,-94.9186,25.6,11144222 
TABS,ioos:station:wmo:42043:1,2017-06-12T11:00:00Z,28.9818,-94.9186,25.9,11144222 
TABS,ioos:station:wmo:42043:1,2017-06-12T11:30:00Z,28.9818,-94.9186,25.7,11144222 
TABS,ioos:station:wmo:42043:1,2017-06-12T12:00:00Z,28.9818,-94.9186,25.8,11144222 
TABS,ioos:station:wmo:42043:1,2017-06-12T12:30:00Z,28.9818,-94.9186,25.7,11144222 
TABS,ioos:station:wmo:42043:1,2017-06-12T13:00:00Z,28.9818,-94.9186,26.0,11144222 
TABS,ioos:station:wmo:42043:1,2017-06-12T13:30:00Z,28.9818,-94.9186,26.1,11144222 
TABS,ioos:station:wmo:42043:1,2017-06-12T14:00:00Z,28.9818,-94.9186,26.2,11144222 
TABS,ioos:station:wmo:42043:1,2017-06-12T14:30:00Z,28.9818,-94.9186,26.3,11144222 
TABS,ioos:station:wmo:42043:1,2017-06-12T15:00:00Z,28.9818,-94.9186,25.7,11144222 
TABS,ioos:station:wmo:42043:1,2017-06-12T15:30:00Z,28.9818,-94.9186,25.8,11144222 
TABS,ioos:station:wmo:42043:1,2017-06-12T16:00:00Z,28.9818,-94.9186,26.0,11144222 
TABS,ioos:station:wmo:42043:1,2017-06-12T16:30:00Z,28.9818,-94.9186,26.2,11144222 
TABS,ioos:station:wmo:42043:1,2017-06-12T17:00:00Z,28.9818,-94.9186,26.4,11144222 
TABS,ioos:station:wmo:42043:1,2017-06-12T17:30:00Z,28.9818,-94.9186,26.4,11144222 
TABS,ioos:station:wmo:42043:1,2017-06-12T18:00:00Z,28.9818,-94.9186,26.3,11144222 
TABS,ioos:station:wmo:42043:1,2017-06-12T18:30:00Z,28.9818,-94.9186,26.5,11144222 
TABS,ioos:station:wmo:42043:1,2017-06-12T19:00:00Z,28.9818,-94.9186,26.2,11144222 
TABS,ioos:station:wmo:42043:1,2017-06-12T19:30:00Z,28.9818,-94.9186,25.9,11144222 
TABS,ioos:station:wmo:42043:1,2017-06-12T20:00:00Z,28.9818,-94.9186,26.0,11144222 
TABS,ioos:station:wmo:42043:1,2017-06-12T20:30:00Z,28.9818,-94.9186,26.3,11144222 
TABS,ioos:station:wmo:42043:1,2017-06-12T21:00:00Z,28.9818,-94.9186,26.5,11144222 
TABS,ioos:station:wmo:42043:1,2017-06-12T21:30:00Z,28.9818,-94.9186,26.6,11144222 
TABS,ioos:station:wmo:42043:1,2017-06-12T22:00:00Z,28.9818,-94.9186,26.6,11144222 
TABS,ioos:station:wmo:42043:1,2017-06-12T22:30:00Z,28.9818,-94.9186,26.4,11144222 
TABS,ioos:station:wmo:42043:1,2017-06-12T23:00:00Z,28.9818,-94.9186,26.6,11144222 
TABS,ioos:station:wmo:42043:1,2017-06-12T23:30:00Z,28.9818,-94.9186,26.5,11144222 